Stations météo

Publicité
Cannes, France (7684): Température de l'air & dewpoint: 14.09.2018 06:00:00 - 20.09.2018 06:00:00 (CEST)Cannes, France (7684): Température de l'air 5cm: 14.09.2018 06:00:00 - 20.09.2018 06:00:00 (CEST)Cannes, France (7684): Vitesse du vent & gusts: 14.09.2018 06:00:00 - 20.09.2018 06:00:00 (CEST)Cannes, France (7684): Direction du vent: 14.09.2018 06:00:00 - 20.09.2018 06:00:00 (CEST)Cannes, France (7684): reduced air pressure: 14.09.2018 06:00:00 - 20.09.2018 06:00:00 (CEST)Cannes, France (7684): visibility: 14.09.2018 06:00:00 - 20.09.2018 06:00:00 (CEST)Cannes, France (7684): Quantités de précipitations: 14.09.2018 06:00:00 - 20.09.2018 06:00:00 (CEST)
Date & Time tt [°C] td [°C] tt 5cm [°C] ff [km/h] ff [knt] fx [km/h] fx [knt] dd ppp [hPa] vv [km] rr [mm]
20.09.2018 06:00:00 18,6 15,3 17,6 8 4 14 8 N 1018,4 25 0,0
20.09.2018 05:00:00 18,8 15,5 17,7 8 4 14 7 N 1018,5 25 0,0
20.09.2018 04:00:00 19,1 15,4 17,4 7 4 13 7 N 1018,7 25 0,0
20.09.2018 03:00:00 19,2 16,1 18,3 8 5 15 8 N 1018,9 22 0,0
20.09.2018 02:00:00 19,7 16,3 18,3 7 4 13 7 N 1019,3 23 0,0
20.09.2018 01:00:00 20,1 16,3 18,8 5 3 12 6 NNW 1019,5 25 0,0
20.09.2018 00:00:00 20,8 16,4 19,2 6 3 12 6 N 1019,6 27 0,0
19.09.2018 23:00:00 21,3 16,3 19,4 4 2 8 4 N 1019,4 29 0,0
19.09.2018 22:00:00 21,9 16,0 20,4 4 2 9 5 N 1019,3 31 0,0
19.09.2018 21:00:00 22,7 16,5 20,7 4 2 8 5 N 1019,1 28 0,0
19.09.2018 20:00:00 24,2 18,4 21,4 4 2 8 4 S 1018,8 18 0,0
19.09.2018 19:00:00 26,2 17,0 26,3 5 3 10 5 S 1018,7 36 0,0
19.09.2018 18:00:00 27,2 18,2 32,2 6 3 15 8 S 1018,3 29 0,0
19.09.2018 17:00:00 27,2 19,0 34,0 8 4 17 9 S 1018,4 20 0,0
19.09.2018 16:00:00 27,1 18,7 34,0 9 5 20 11 SSE 1018,8 20 0,0
19.09.2018 15:00:00 27,6 19,7 34,4 12 7 26 14 S 1019,0 19 0,0
19.09.2018 14:00:00 27,7 16,9 35,0 16 9 23 12 SSE 1019,1 19 0,0
19.09.2018 13:00:00 27,6 18,6 34,3 12 7 18 10 SSE 1019,5 20 0,0
19.09.2018 12:00:00 27,2 17,4 33,6 9 5 17 9 SSE 1019,8 60 0,0
19.09.2018 11:00:00 27,4 15,7 28,1 4 2 8 4 SE 1020,0 55 0,0
19.09.2018 10:00:00 23,8 16,3 23,2 4 2 17 9 N 1019,9 38 0,0
19.09.2018 09:00:00 20,2 16,0 18,5 8 4 16 9 N 1019,7 20 0,0
19.09.2018 08:00:00 18,4 15,6 17,0 8 4 14 8 N 1019,3 19 0,0
19.09.2018 07:00:00 18,0 15,6 17,0 5 3 14 8 NNW 1019,0 28 0,0
19.09.2018 06:00:00 18,2 15,8 17,2 8 4 15 8 N 1018,8 27 0,0
19.09.2018 05:00:00 18,3 15,9 17,2 5 3 12 7 N 1018,6 29 0,0
19.09.2018 04:00:00 18,8 16,2 17,7 5 3 10 6 N 1018,7 29 0,0
19.09.2018 03:00:00 19,1 16,3 18,0 5 3 12 6 N 1018,8 29 0,0
19.09.2018 02:00:00 19,5 16,7 18,3 5 3 10 5 N 1019,0 30 0,0
19.09.2018 01:00:00 20,0 17,0 19,0 5 3 16 9 NNW 1019,3 28 0,0
19.09.2018 00:00:00 20,4 18,0 19,5 7 4 10 6 N 1019,4 24 0,0
18.09.2018 23:00:00 21,3 18,3 20,0 4 2 9 5 NNE 1019,5 25 0,0
18.09.2018 22:00:00 22,1 18,7 20,7 4 2 10 5 N 1019,2 24 0,0
18.09.2018 21:00:00 23,2 19,6 20,1 4 2 7 4 NNE 1018,5 20 0,0
18.09.2018 20:00:00 24,1 19,6 22,6 5 3 12 6 SSE 1017,7 17 0,0
18.09.2018 19:00:00 24,9 19,3 24,7 7 4 16 8 SSE 1017,5 40 0,0
18.09.2018 18:00:00 26,0 18,9 26,9 9 5 16 9 SSE 1017,4 51 0,0
18.09.2018 17:00:00 26,5 19,4 31,8 14 7 22 12 SSE 1018,2 20 0,0
18.09.2018 16:00:00 27,2 18,5 33,2 14 7 27 15 SSE 1018,7 59 0,0
18.09.2018 15:00:00 27,3 18,3 28,9 10 5 24 13 ESE 1019,0 52 0,0
18.09.2018 14:00:00 26,2 19,1 29,5 11 6 23 12 SE 1019,3 37 0,0
18.09.2018 13:00:00 26,7 18,0 33,1 12 6 26 14 SE 1019,6 18 0,0
18.09.2018 12:00:00 27,2 17,4 32,4 13 7 26 14 SE 1019,6 20 0,0
18.09.2018 11:00:00 27,0 16,3 29,5 9 5 19 10 ENE 1019,4 58 0,0
18.09.2018 10:00:00 24,4 16,6 23,6 6 3 13 7 N 1019,3 18 0,0
18.09.2018 09:00:00 20,5 15,9 19,0 6 3 19 10 N 1019,7 20 0,0
18.09.2018 08:00:00 17,9 15,2 16,4 9 5 15 8 N 1019,5 20 0,0
18.09.2018 07:00:00 17,1 15,1 16,2 7 4 15 8 N 1019,4 26 0,0
18.09.2018 06:00:00 17,4 15,4 16,3 8 5 15 8 NNE 1019,3 29 0,0
18.09.2018 05:00:00 17,6 15,4 16,6 9 5 14 8 N 1019,1 30 0,0
18.09.2018 04:00:00 17,7 15,9 16,9 8 5 14 8 N 1019,0 28 0,0
18.09.2018 03:00:00 18,1 16,1 17,0 6 4 12 7 N 1019,1 30 0,0
18.09.2018 02:00:00 18,6 16,4 17,5 7 4 11 6 N 1019,3 31 0,0
18.09.2018 01:00:00 18,9 17,0 17,8 6 3 11 6 N 1019,4 27 0,0
18.09.2018 00:00:00 19,5 17,3 18,4 5 3 12 6 N 1019,6 26 0,0
17.09.2018 23:00:00 20,2 17,8 18,7 4 2 8 4 N 1020,0 26 0,0
17.09.2018 22:00:00 21,3 18,3 19,9 5 3 9 5 NNE 1019,9 27 0,0
17.09.2018 21:00:00 22,2 18,6 19,0 4 2 7 4 N 1019,5 28 0,0
17.09.2018 20:00:00 23,7 18,8 21,8 5 3 14 7 SE 1019,2 20 0,0
17.09.2018 19:00:00 24,7 18,6 26,1 8 4 20 11 SSE 1018,8 46 0,0
17.09.2018 18:00:00 25,0 18,7 25,8 13 7 26 14 SSE 1019,2 56 0,0
17.09.2018 17:00:00 26,6 17,9 33,2 10 5 20 11 SSE 1019,3 60 0,0
17.09.2018 16:00:00 26,6 18,5 32,6 7 4 20 11 S 1020,1 60 0,0
17.09.2018 15:00:00 26,9 17,9 31,3 13 7 21 12 SSE 1020,5 60 0,0
17.09.2018 14:00:00 26,5 17,8 30,9 13 7 24 13 SE 1021,2 60 0,0
17.09.2018 13:00:00 26,9 16,5 30,5 11 6 25 14 SE 1021,5 54 0,0
17.09.2018 12:00:00 26,9 15,9 30,1 11 6 24 13 ESE 1021,7 55 0,0
17.09.2018 11:00:00 27,0 17,2 28,1 9 5 19 10 E 1021,7 60 0,0
17.09.2018 10:00:00 25,2 16,9 23,7 4 2 11 6 N 1021,5 45 0,0
17.09.2018 09:00:00 20,0 15,4 17,7 6 4 14 7 N 1021,4 48 0,0
17.09.2018 08:00:00 18,0 15,3 17,0 7 4 16 9 N 1021,2 32 0,0
17.09.2018 07:00:00 18,1 15,5 17,1 6 4 13 7 N 1020,7 37 0,0
17.09.2018 06:00:00 18,6 15,8 17,5 6 3 10 6 N 1020,6 41 0,0
17.09.2018 05:00:00 19,1 16,0 18,5 4 2 12 6 N 1020,7 43 0,0
17.09.2018 04:00:00 19,7 16,0 19,1 8 4 13 7 N 1020,8 52 0,0
17.09.2018 03:00:00 19,6 16,1 19,0 5 3 11 6 N 1021,1 54 0,0
17.09.2018 02:00:00 19,5 16,2 18,5 5 3 11 6 N 1021,5 51 0,0
17.09.2018 01:00:00 19,8 16,2 18,5 4 2 9 5 N 1021,6 49 0,0
17.09.2018 00:00:00 19,9 16,3 19,1 4 2 10 5 N 1021,7 51 0,0
16.09.2018 23:00:00 20,1 16,5 18,6 6 3 10 5 N 1021,8 48 0,0
16.09.2018 22:00:00 21,1 16,7 18,0 4 2 8 4 N 1021,7 59 0,0
16.09.2018 21:00:00 22,2 17,3 18,8 4 2 8 4 W 1021,5 60 0,0
16.09.2018 20:00:00 23,8 17,5 22,3 4 2 11 6 SSE 1021,4 14 0,0
16.09.2018 19:00:00 24,3 17,8 24,6 7 4 16 8 SE 1021,1 60 0,0
16.09.2018 18:00:00 25,6 17,3 27,9 10 5 18 10 SSE 1021,3 59 0,0
16.09.2018 17:00:00 25,4 17,1 27,3 8 4 18 10 SE 1021,2 60 0,0
16.09.2018 16:00:00 25,2 17,9 28,0 14 7 21 11 SSE 1021,4 54 0,0
16.09.2018 15:00:00 26,6 17,4 31,7 13 7 24 13 SSE 1021,7 60 0,0
16.09.2018 14:00:00 26,8 17,8 31,0 11 6 23 12 SSE 1021,8 60 0,0
16.09.2018 13:00:00 26,7 18,6 30,6 13 7 22 12 SSE 1021,9 52 0,0
16.09.2018 12:00:00 26,2 18,8 27,6 11 6 18 10 SSE 1022,3 50 0,0
16.09.2018 11:00:00 25,1 17,8 27,6 10 5 20 11 SE 1022,6 48 0,0
16.09.2018 10:00:00 23,4 16,4 20,5 5 3 13 7 N 1022,0 48 0,0
16.09.2018 09:00:00 19,9 15,5 18,3 7 4 16 9 NNE 1021,7 53 0,0
16.09.2018 08:00:00 18,1 15,5 17,0 6 4 16 9 NNE 1021,8 20 0,0
16.09.2018 07:00:00 17,8 15,4 16,9 8 4 16 9 NNE 1021,1 36 0,0
16.09.2018 06:00:00 17,9 15,9 17,0 9 5 15 8 N 1020,7 32 0,0
16.09.2018 05:00:00 18,5 16,5 17,6 7 4 14 8 NNE 1020,4 28 0,0
16.09.2018 04:00:00 19,0 17,3 18,2 9 5 16 9 NNE 1020,5 24 0,0
16.09.2018 03:00:00 19,7 18,5 18,5 6 4 11 6 NNE 1021,2 16 0,0
16.09.2018 02:00:00 20,3 19,1 19,1 6 3 10 5 N 1021,3 16 0,0
16.09.2018 01:00:00 20,8 19,5 18,9 3 2 10 5 NNE 1021,1 18 0,0
16.09.2018 00:00:00 20,9 19,4 19,3 5 3 10 6 N 1020,9 16 0,0
15.09.2018 23:00:00 21,6 19,7 19,4 5 3 8 4 NNE 1020,7 17 0,0
15.09.2018 22:00:00 22,3 19,7 19,3 0 0 6 3 N 1020,4 29 0,0
15.09.2018 21:00:00 23,5 20,0 21,5 4 2 13 7 NNE 1020,2 40 0,0
15.09.2018 20:00:00 24,1 19,8 22,9 6 4 16 9 NE 1019,7 43 0,0
15.09.2018 19:00:00 25,0 19,6 24,9 8 5 20 11 ENE 1019,6 43 0,0
15.09.2018 18:00:00 26,2 18,6 27,1 10 6 28 15 E 1019,1 59 0,0
15.09.2018 17:00:00 26,4 19,3 28,1 12 7 27 15 ENE 1019,1 42 0,0
15.09.2018 16:00:00 27,6 19,4 30,0 11 6 26 14 E 1018,9 20 0,0
15.09.2018 15:00:00 27,4 19,2 29,3 13 7 31 17 ENE 1018,8 37 0,0
15.09.2018 14:00:00 27,7 18,7 29,4 12 7 28 15 E 1018,9 20 0,0
15.09.2018 13:00:00 27,5 19,0 28,7 13 7 23 13 E 1018,9 20 0,0
15.09.2018 12:00:00 26,9 19,8 29,8 13 7 22 12 SSE 1019,2 28 0,0
15.09.2018 11:00:00 26,7 18,8 29,8 9 5 16 9 S 1018,9 31 0,0
15.09.2018 10:00:00 24,4 18,8 24,2 5 3 9 5 N 1018,4 20 0,0
15.09.2018 09:00:00 22,0 18,0 20,8 5 3 12 7 N 1018,1 25 0,0
15.09.2018 08:00:00 20,2 17,8 19,2 8 4 14 8 N 1017,9 20 0,0
15.09.2018 07:00:00 20,1 17,7 19,2 7 4 13 7 N 1017,3 20 0,0
15.09.2018 06:00:00 20,4 17,8 19,7 5 3 11 6 N 1017,0 26 0,0
15.09.2018 05:00:00 20,8 18,2 20,1 7 4 13 7 N 1016,7 20 0,0
15.09.2018 04:00:00 20,5 18,4 19,3 7 4 12 7 N 1016,7 20 0,0
15.09.2018 03:00:00 20,2 18,3 19,3 5 3 13 7 N 1016,8 18 0,0
15.09.2018 02:00:00 20,1 18,6 19,2 6 4 11 6 N 1017,0 15 0,0
15.09.2018 01:00:00 20,4 18,7 19,6 6 4 13 7 N 1016,8 16 0,0
15.09.2018 00:00:00 20,7 18,8 19,8 6 3 10 5 N 1016,5 16 0,0
14.09.2018 23:00:00 21,6 19,2 20,5 5 3 9 5 N 1016,3 18 0,0
14.09.2018 22:00:00 22,2 19,0 20,9 5 3 10 5 N 1016,2 24 0,0
14.09.2018 21:00:00 23,2 20,0 20,1 4 2 5 3 N 1015,9 20 0,0
14.09.2018 20:00:00 24,2 20,3 21,9 0 0 10 5 N 1015,5 29 0,0
14.09.2018 19:00:00 25,2 20,5 26,9 7 4 18 10 SSE 1015,4 35 0,0
14.09.2018 18:00:00 26,2 20,3 28,4 13 7 23 12 S 1015,3 20 0,0
14.09.2018 17:00:00 27,3 18,0 31,6 12 7 24 13 SSE 1015,1 59 0,0
14.09.2018 16:00:00 27,1 20,0 34,1 14 8 24 13 S 1015,2 60 0,0
14.09.2018 15:00:00 27,0 19,9 34,3 10 6 25 13 SSE 1015,4 60 0,0
14.09.2018 14:00:00 27,2 20,3 34,1 15 8 25 14 SSE 1015,9 19 0,0
14.09.2018 13:00:00 27,0 20,3 32,0 16 8 24 13 SSE 1015,9 20 0,0
14.09.2018 12:00:00 26,4 19,0 31,9 14 8 21 11 SE 1016,1 20 0,0
14.09.2018 11:00:00 26,8 18,6 30,7 10 5 16 9 SSE 1016,0 41 0,0
14.09.2018 10:00:00 25,2 17,4 26,0 6 3 14 7 NNW 1015,6 42 0,0
14.09.2018 09:00:00 21,9 17,1 20,4 7 4 15 8 NNE 1015,4 51 0,0
14.09.2018 08:00:00 19,3 16,9 18,1 8 4 17 9 NNE 1015,3 36 0,0
14.09.2018 07:00:00 18,8 16,9 18,1 8 4 14 8 N 1014,9 38 0,0
14.09.2018 06:00:00 18,8 17,1 18,0 8 4 13 7 N 1014,6 38 0,0

tt = Température de l'air
td = dewpoint
tt 5cm = Température de l'air 5cm
ff = Vitesse du vent
fx = gusts
dd = Direction du vent
ppp = reduced air pressure
vv = visibility
rr = Quantités de précipitations

stations d'obs. à proximité